Time,TemperatureF,DewpointF,PressureIn,WindDirection,WindDirectionDegrees,WindSpeedMPH,WindSpeedGustMPH,Humidity,HourlyPrecipIn,Conditions,Clouds,dailyrainin,SoftwareType,DateUTC
2013-01-25 11:02:00,35.0,34.0,-100.00,WSW,250,3.0,6.0,98,-99.99,,,-99.99,,2013-01-25 18:02:00,
2013-01-25 11:11:00,35.0,35.0,-100.00,SW,235,3.0,7.0,98,-99.99,,,-99.99,,2013-01-25 18:11:00,
2013-01-25 11:22:00,35.0,35.0,-100.00,WSW,240,4.0,6.0,98,-99.99,,,-99.99,,2013-01-25 18:22:00,
2013-01-25 11:32:00,36.0,35.0,-100.00,SW,235,4.0,7.0,98,-99.99,,,-99.99,,2013-01-25 18:32:00,
2013-01-25 11:42:00,36.0,35.0,-100.00,SW,235,6.0,8.0,98,-99.99,,,-99.99,,2013-01-25 18:42:00,
2013-01-25 11:51:00,34.0,34.0,-100.00,WSW,240,4.0,9.0,98,-99.99,,,-99.99,,2013-01-25 18:51:00,
2013-01-25 12:02:00,36.0,35.0,-100.00,SW,220,6.0,9.0,98,-99.99,,,-99.99,,2013-01-25 19:02:00,
2013-01-25 12:12:00,37.0,36.0,-100.00,WSW,240,6.0,9.0,98,-99.99,,,-99.99,,2013-01-25 19:12:00,
2013-01-25 12:21:00,37.0,36.0,-100.00,WSW,240,6.0,9.0,98,-99.99,,,-99.99,,2013-01-25 19:21:00,
2013-01-25 12:32:00,37.0,37.0,-100.00,SW,220,7.0,12.0,98,-99.99,,,-99.99,,2013-01-25 19:32:00,
2013-01-25 12:41:00,37.0,37.0,-100.00,WSW,245,6.0,12.0,97,-99.99,,,-99.99,,2013-01-25 19:41:00,
2013-01-25 12:52:00,38.0,37.0,-100.00,SW,220,7.0,11.0,97,-99.99,,,-99.99,,2013-01-25 19:52:00,
2013-01-25 13:02:00,38.0,37.0,-100.00,SW,220,7.0,10.0,96,-99.99,,,-99.99,,2013-01-25 20:02:00,
2013-01-25 13:11:00,37.0,37.0,-100.00,SW,220,8.0,12.0,96,-99.99,,,-99.99,,2013-01-25 20:11:00,
2013-01-25 13:21:00,37.0,37.0,-100.00,SW,220,8.0,12.0,96,-99.99,,,-99.99,,2013-01-25 20:21:00,
2013-01-25 13:31:00,38.0,37.0,-100.00,SW,235,7.0,12.0,94,-99.99,,,-99.99,,2013-01-25 20:31:00,
2013-01-25 13:42:00,39.0,37.0,-100.00,SW,220,8.0,12.0,93,-99.99,,,-99.99,,2013-01-25 20:42:00,
2013-01-25 13:52:00,39.0,37.0,-100.00,SW,230,8.0,13.0,92,-99.99,,,-99.99,,2013-01-25 20:52:00,
2013-01-25 14:02:00,39.0,37.0,-100.00,WSW,245,7.0,13.0,91,-99.99,,,-99.99,,2013-01-25 21:02:00,
2013-01-25 14:11:00,39.0,37.0,-100.00,WSW,245,7.0,13.0,91,-99.99,,,-99.99,,2013-01-25 21:11:00,
2013-01-25 14:20:00,40.0,36.0,-100.00,SW,225,9.0,15.0,87,-99.99,,,-99.99,,2013-01-25 21:20:00,
2013-01-25 14:21:00,39.0,37.0,-100.00,SW,220,9.0,15.0,89,-99.99,,,-99.99,,2013-01-25 21:21:00,
2013-01-25 14:32:00,40.0,36.0,-100.00,SW,225,9.0,15.0,87,-99.99,,,-99.99,,2013-01-25 21:32:00,
2013-01-25 14:42:00,40.0,36.0,-100.00,SW,225,9.0,15.0,87,-99.99,,,-99.99,,2013-01-25 21:42:00,
2013-01-25 14:52:00,40.0,36.0,-100.00,SW,225,9.0,15.0,87,-99.99,,,-99.99,,2013-01-25 21:52:00,
2013-01-25 15:02:00,40.0,36.0,-100.00,SW,225,9.0,15.0,87,-99.99,,,-99.99,,2013-01-25 22:02:00,
2013-01-25 15:11:00,40.0,36.0,-100.00,SW,225,9.0,15.0,87,-99.99,,,-99.99,,2013-01-25 22:11:00,
2013-01-25 16:22:00,40.0,35.0,-100.00,West,265,7.0,13.0,84,-99.99,,,-99.99,,2013-01-25 23:22:00,
2013-01-25 16:32:00,40.0,35.0,-100.00,SW,235,6.0,10.0,84,-99.99,,,-99.99,,2013-01-25 23:32:00,
2013-01-25 16:42:00,40.0,35.0,-100.00,West,280,4.0,10.0,84,-99.99,,,-99.99,,2013-01-25 23:42:00,
2013-01-25 16:52:00,40.0,35.0,-100.00,West,280,4.0,10.0,84,-99.99,,,-99.99,,2013-01-25 23:52:00,
2013-01-25 17:01:00,39.0,35.0,-100.00,SW,235,4.0,9.0,85,-99.99,,,-99.99,,2013-01-26 00:01:00,
2013-01-25 17:11:00,39.0,35.0,-100.00,SW,235,4.0,9.0,85,-99.99,,,-99.99,,2013-01-26 00:11:00,
2013-01-25 17:22:00,39.0,35.0,-100.00,SW,225,4.0,8.0,86,-99.99,,,-99.99,,2013-01-26 00:22:00,
2013-01-25 17:32:00,39.0,35.0,-100.00,SW,225,4.0,8.0,86,-99.99,,,-99.99,,2013-01-26 00:32:00,
2013-01-25 17:41:00,39.0,36.0,-100.00,West,280,6.0,9.0,86,-99.99,,,-99.99,,2013-01-26 00:41:00,
2013-01-25 17:53:00,39.0,36.0,-100.00,West,280,6.0,9.0,86,-99.99,,,-99.99,,2013-01-26 00:53:00,
2013-01-25 18:01:00,39.0,35.0,-100.00,West,265,4.0,7.0,86,-99.99,,,-99.99,,2013-01-26 01:01:00,
2013-01-25 18:11:00,39.0,36.0,-100.00,WSW,245,4.0,9.0,87,-99.99,,,-99.99,,2013-01-26 01:11:00,
2013-01-25 18:22:00,39.0,36.0,-100.00,WSW,245,4.0,9.0,87,-99.99,,,-99.99,,2013-01-26 01:22:00,
2013-01-25 18:31:00,39.0,35.0,-100.00,West,275,4.0,7.0,87,-99.99,,,-99.99,,2013-01-26 01:31:00,
2013-01-25 18:41:00,39.0,35.0,-100.00,WNW,290,4.0,6.0,87,-99.99,,,-99.99,,2013-01-26 01:41:00,
2013-01-25 18:52:00,39.0,35.0,-100.00,WNW,290,4.0,6.0,87,-99.99,,,-99.99,,2013-01-26 01:52:00,
2013-01-25 19:01:00,38.0,35.0,-100.00,SW,235,3.0,6.0,87,-99.99,,,-99.99,,2013-01-26 02:01:00,
2013-01-25 19:11:00,38.0,35.0,-100.00,WNW,290,3.0,6.0,88,-99.99,,,-99.99,,2013-01-26 02:11:00,
2013-01-25 19:21:00,39.0,36.0,-100.00,WNW,290,4.0,6.0,88,-99.99,,,-99.99,,2013-01-26 02:21:00,
2013-01-25 19:32:00,39.0,36.0,-100.00,WSW,255,2.0,6.0,88,-99.99,,,-99.99,,2013-01-26 02:32:00,
2013-01-25 19:42:00,38.0,35.0,-100.00,SW,235,3.0,7.0,88,-99.99,,,-99.99,,2013-01-26 02:42:00,
2013-01-25 19:52:00,38.0,35.0,-100.00,West,280,4.0,9.0,89,-99.99,,,-99.99,,2013-01-26 02:52:00,
2013-01-25 20:01:00,38.0,35.0,-100.00,WSW,250,4.0,8.0,89,-99.99,,,-99.99,,2013-01-26 03:01:00,
2013-01-25 20:11:00,38.0,35.0,-100.00,SW,230,4.0,7.0,90,-99.99,,,-99.99,,2013-01-26 03:11:00,
2013-01-25 20:21:00,38.0,36.0,-100.00,WSW,255,6.0,9.0,90,-99.99,,,-99.99,,2013-01-26 03:21:00,
2013-01-25 20:31:00,38.0,36.0,-100.00,WSW,255,5.0,9.0,90,-99.99,,,-99.99,,2013-01-26 03:31:00,
2013-01-25 20:42:00,38.0,35.0,-100.00,WSW,255,4.0,8.0,90,-99.99,,,-99.99,,2013-01-26 03:42:00,
2013-01-25 20:51:00,38.0,35.0,-100.00,West,280,4.0,9.0,91,-99.99,,,-99.99,,2013-01-26 03:51:00,
2013-01-25 21:01:00,37.0,35.0,-100.00,West,270,4.0,7.0,91,-99.99,,,-99.99,,2013-01-26 04:01:00,
2013-01-25 21:12:00,37.0,35.0,-100.00,West,265,5.0,9.0,91,-99.99,,,-99.99,,2013-01-26 04:12:00,
2013-01-25 21:21:00,37.0,35.0,-100.00,West,265,5.0,9.0,91,-99.99,,,-99.99,,2013-01-26 04:21:00,
2013-01-25 21:32:00,37.0,35.0,-100.00,SW,225,4.0,7.0,92,-99.99,,,-99.99,,2013-01-26 04:32:00,
2013-01-25 21:42:00,37.0,35.0,-100.00,SW,225,4.0,7.0,92,-99.99,,,-99.99,,2013-01-26 04:42:00,
2013-01-25 21:52:00,37.0,35.0,-100.00,WNW,300,5.0,10.0,92,-99.99,,,-99.99,,2013-01-26 04:52:00,
2013-01-25 22:03:00,37.0,35.0,-100.00,West,280,7.0,9.0,93,-99.99,,,-99.99,,2013-01-26 05:03:00,
2013-01-25 22:12:00,37.0,36.0,-100.00,West,280,6.0,9.0,93,-99.99,,,-99.99,,2013-01-26 05:12:00,
2013-01-25 22:22:00,37.0,35.0,-100.00,SW,220,4.0,7.0,93,-99.99,,,-99.99,,2013-01-26 05:22:00,
2013-01-25 22:33:00,37.0,35.0,-100.00,SW,215,4.0,10.0,93,-99.99,,,-99.99,,2013-01-26 05:33:00,
2013-01-25 22:41:00,37.0,35.0,-100.00,WSW,240,4.0,7.0,93,-99.99,,,-99.99,,2013-01-26 05:41:00,
2013-01-25 22:52:00,37.0,35.0,-100.00,WSW,240,4.0,7.0,93,-99.99,,,-99.99,,2013-01-26 05:52:00,
2013-01-25 23:02:00,37.0,35.0,-100.00,SW,230,4.0,9.0,94,-99.99,,,-99.99,,2013-01-26 06:02:00,
2013-01-25 23:11:00,37.0,35.0,-100.00,West,270,5.0,11.0,94,-99.99,,,-99.99,,2013-01-26 06:11:00,
2013-01-25 23:21:00,37.0,35.0,-100.00,SW,215,6.0,11.0,94,-99.99,,,-99.99,,2013-01-26 06:21:00,
2013-01-25 23:31:00,37.0,35.0,-100.00,West,275,5.0,11.0,94,-99.99,,,-99.99,,2013-01-26 06:31:00,
2013-01-25 23:41:00,37.0,35.0,-100.00,SW,235,4.0,12.0,94,-99.99,,,-99.99,,2013-01-26 06:41:00,
2013-01-25 23:51:00,37.0,35.0,-100.00,SW,235,4.0,12.0,94,-99.99,,,-99.99,,2013-01-26 06:51:00,